Simultaneous Nadir Overpasses (SNOs) Predictions

Prediction of SNOs between GOES-15 and METOP-C Satellite Orbit:

Table of predicted SNOs for the next 14.0 days since TLE Epoch: 3/5/2022
Index Date Time (GOES-15) GOES-15 Lat,Lon METOP-C Lat,Lon Distance(km) Time Diff (sec)
1 03/06/2022 06:00:44 -0.01,-127.62 -0.04,-127.64 4.67 80
2 03/08/2022 18:01:38 0.01,-127.74 -0.13,-127.23 58.01 80
3 03/10/2022 06:17:59 0.00,-127.79 -0.90,-131.83 460.05 80
4 03/11/2022 05:59:59 -0.00,-127.83 0.20,-126.83 113.26 80
5 03/12/2022 18:16:12 -0.01,-127.89 0.79,-131.40 400.10 80
6 03/13/2022 17:58:14 -0.00,-127.93 -0.36,-126.42 172.97 80
7 03/15/2022 06:14:34 0.01,-127.98 -0.65,-131.02 345.76 80
8 03/16/2022 05:56:35 0.00,-128.01 0.45,-126.02 227.14 80
9 03/17/2022 18:12:48 -0.01,-128.07 0.55,-130.59 286.92 80
10 03/18/2022 17:54:49 0.00,-128.10 -0.54,-125.59 285.84 80
